Wind_Speed
5 4 4 4 3 4 4 3 2 1 0 1 2 4 5 5 5 6 6 2 1 2 4 8 11 12 11 10 9 8 8 9 10 11 11 11 10 7 5 4 4 5 6 8 10 12 16 20 21
5 4 4 4 4 6 4 3 1 1 2 2 2 4 5 5 5 6 7 4 3 2 3 6 10 12 11 9 8 7 8 9 10 12 13 12 10 8 6 5 4 4 5 6 7 9 13 18 21
6 4 4 3 3 5 4 1 0 3 4 4 4 5 6 6 4 4 5 5 5 4 3 5 8 10 10 9 8 7 8 9 11 13 14 13 11 9 7 6 5 4 5 5 6 6 9 13 19
6 5 4 4 4 3 3 1 2 4 6 6 6 7 7 6 4 3 4 4 5 5 3 4 6 9 9 8 8 7 8 10 11 13 14 14 12 11 9 7 6 5 5 5 5 5 5 9 16
7 6 6 6 6 2 1 1 3 5 7 8 8 9 8 7 5 3 4 4 5 5 3 3 4 6 7 8 8 7 8 9 10 12 14 15 14 12 10 8 7 7 6 5 5 4 3 5 12
10 8 7 7 6 3 2 3 3 4 6 8 8 8 9 8 6 4 4 4 5 5 5 4 3 5 6 7 8 8 8 9 10 12 14 15 14 12 11 10 8 7 7 6 5 4 2 3 8
13 9 6 6 5 3 3 4 6 7 7 7 8 8 8 7 6 5 4 4 5 7 6 5 4 4 5 6 7 8 9 10 11 12 13 15 14 13 12 11 9 8 7 6 6 5 3 1 5
15 12 6 5 4 3 3 4 6 7 9 9 9 8 8 7 6 5 4 4 6 7 8 7 6 5 5 6 7 8 9 9 10 12 13 14 13 12 12 11 10 8 8 7 7 7 6 5 4
16 15 11 8 7 6 5 4 5 6 8 8 9 8 8 7 7 6 5 6 6 8 9 9 8 7 6 6 7 8 8 9 9 11 12 13 13 12 12 12 11 9 8 8 8 8 9 8 7
16 15 14 11 9 7 7 7 7 5 4 6 7 8 8 8 8 8 8 7 8 9 10 11 11 10 8 8 9 9 9 9 8 9 11 13 13 12 12 13 12 10 8 8 8 8 10 11 11
17 16 14 13 10 8 8 9 10 10 7 4 5 7 8 9 9 10 10 10 10 10 12 12 13 12 11 10 11 11 10 9 8 8 10 11 12 12 13 13 13 11 9 8 8 8 9 11 14
18 18 17 17 16 13 12 12 11 12 13 10 8 8 9 10 10 10 10 11 12 12 13 14 15 15 14 13 13 12 11 10 9 8 8 10 11 12 14 14 13 12 10 8 8 8 9 11 14
19 20 19 19 18 17 17 15 13 13 16 15 13 12 13 14 12 11 11 11 13 14 15 17 17 17 17 16 15 14 13 11 10 9 8 9 10 10 12 14 14 12 11 9 8 9 10 11 13
21 21 20 21 21 21 20 18 17 17 20 20 19 17 17 18 17 15 13 13 14 15 16 18 19 19 18 17 16 15 14 13 12 10 9 9 9 10 11 12 14 13 11 10 9 10 11 12 13
23 22 22 24 26 25 24 21 21 23 24 25 24 23 23 22 21 19 17 16 15 16 16 16 17 18 17 17 16 14 15 15 13 12 10 9 9 10 12 12 14 15 14 13 12 12 12 13 14
26 25 25 27 28 28 28 25 27 28 29 29 29 28 27 27 25 24 21 19 17 16 17 17 16 15 15 14 15 15 15 14 13 13 12 10 10 11 12 14 14 15 15 14 13 14 14 15 15
30 30 30 30 31 30 32 30 30 32 32 32 32 31 30 28 27 27 25 21 18 17 17 17 16 16 16 15 15 15 16 15 14 14 13 12 12 12 13 14 15 16 16 16 15 14 16 18 18
32 34 34 34 34 35 36 35 34 34 34 34 35 35 34 31 29 28 26 23 19 18 17 17 17 17 17 17 16 16 16 17 16 15 14 14 14 14 15 17 17 18 18 19 18 16 17 19 20
35 37 38 38 39 39 39 39 37 37 37 38 37 38 37 34 30 28 27 25 21 19 18 18 18 18 18 18 18 17 17 17 16 16 15 14 15 16 18 19 20 20 20 21 21 20 19 19 20
37 40 41 42 43 44 43 42 40 39 40 39 39 39 38 35 32 30 28 26 23 20 20 20 20 20 20 20 20 19 16 15 14 15 15 15 17 18 19 21 22 22 23 23 23 23 21 20 20
38 40 42 43 44 45 46 44 41 41 40 39 38 37 35 34 32 30 28 26 24 22 21 22 22 22 22 21 20 18 16 14 14 15 17 18 19 20 21 22 23 24 25 26 26 26 24 21 21
37 40 42 44 44 44 44 44 38 38 37 36 34 33 32 30 31 30 28 28 27 25 24 25 25 24 23 23 20 18 16 15 16 17 19 20 21 22 22 23 24 25 27 27 27 26 25 23 22
34 36 38 40 41 41 39 41 36 35 35 33 32 30 29 29 30 30 29 29 29 28 28 28 27 25 23 21 19 18 17 18 19 20 21 22 22 23 23 23 24 25 27 27 27 27 26 24 23
32 33 34 34 33 33 30 32 30 30 30 29 29 28 28 27 28 29 29 29 30 31 31 30 27 24 21 20 18 17 18 20 21 21 22 22 23 23 23 24 24 25 25 26 27 27 27 25 23
35 35 35 33 29 26 23 24 24 25 26 26 27 26 26 27 27 28 27 28 29 31 32 28 25 22 20 18 17 18 20 21 21 21 21 22 22 23 23 23 24 23 24 25 25 26 28 26 24
36 35 34 33 28 23 20 21 21 21 21 21 22 23 23 23 23 24 25 26 27 28 28 24 22 18 16 16 17 19 21 22 21 21 21 21 21 22 22 23 22 22 22 22 22 23 23 23 23
37 35 34 33 29 25 22 21 23 23 21 19 20 20 21 21 22 22 22 23 24 23 22 19 17 15 15 16 19 20 21 21 21 21 21 20 20 20 21 21 21 21 20 19 19 19 20 21 21
38 35 32 31 29 24 21 22 22 20 22 21 21 21 20 21 23 24 26 26 25 22 19 16 14 15 16 18 20 21 21 21 20 21 21 21 20 19 20 20 20 19 18 17 16 16 17 18 20
29 29 29 28 27 25 22 21 20 19 20 21 21 21 22 23 24 25 25 24 20 15 13 12 12 14 17 19 21 21 22 21 21 21 21 21 21 20 19 19 19 19 18 16 15 15 16 16 18
17 18 21 24 25 25 23 21 19 16 14 15 17 20 18 17 16 14 14 14 11 9 9 10 13 16 19 21 21 21 22 21 21 22 22 22 21 21 20 19 19 19 18 17 16 15 16 16 17
Wind_Direction
161 170 171 180 200 208 214 204 192 230 309 10 317 292 286 281 278 274 286 286 276 354 9 13 16 18 17 18 17 14 6 0 357 354 351 347 345 347 341 325 306 277 261 253 250 246 239 233 230
178 186 178 192 215 200 205 208 196 24 26 25 350 329 315 311 302 278 273 266 249 271 340 5 12 15 16 18 16 9 2 356 354 354 353 351 347 343 337 324 313 290 270 261 263 259 243 233 227
194 197 189 214 239 203 190 197 30 37 16 2 359 353 336 336 336 291 273 259 249 253 299 352 7 14 17 20 17 9 0 356 355 355 359 359 355 347 335 321 310 294 276 272 279 279 247 229 223
198 204 214 247 253 201 177 121 37 31 12 0 6 3 353 341 337 298 278 254 243 246 275 336 1 11 15 19 16 9 5 0 357 358 1 5 3 357 345 328 311 297 284 279 287 296 257 227 220
197 206 228 250 262 249 183 40 29 30 5 350 357 360 357 349 340 303 269 253 240 240 253 305 349 5 10 14 11 4 3 2 359 360 4 7 7 1 353 338 318 300 290 281 282 301 277 231 219
198 206 238 244 247 266 313 341 343 2 352 332 335 351 351 349 347 323 280 252 235 234 240 267 311 349 2 8 5 359 357 358 1 3 5 8 7 2 354 342 325 306 293 283 272 275 286 230 213
201 203 228 218 228 260 308 331 343 349 356 341 338 348 348 350 352 337 304 264 231 228 237 256 278 314 341 357 2 0 356 357 2 6 9 11 11 5 356 344 331 314 296 284 267 254 250 207 189
205 204 213 232 251 258 276 313 329 342 346 345 343 348 349 352 359 349 317 276 239 231 238 251 266 285 311 335 350 355 354 357 4 11 13 14 13 10 1 350 337 323 302 283 269 249 237 220 191
213 216 226 249 257 247 245 277 301 325 336 341 344 342 346 352 358 354 330 291 257 241 241 249 259 272 289 308 325 337 344 351 1 10 14 16 15 11 7 358 345 329 309 288 273 259 243 231 216
221 226 233 248 259 252 252 261 273 288 327 334 332 331 336 341 347 350 337 308 279 257 246 247 252 261 275 291 303 313 322 331 345 2 10 14 13 9 7 5 356 339 318 296 279 269 255 241 231
227 233 240 249 264 267 266 269 276 283 284 291 308 320 327 334 340 341 334 318 296 275 261 255 256 261 270 280 291 298 303 309 322 344 0 8 10 5 2 4 4 353 334 312 291 274 262 247 238
238 242 247 255 268 275 273 271 273 281 284 284 297 310 318 323 329 330 321 310 296 280 269 264 263 268 273 277 285 290 292 297 305 323 341 353 2 2 1 360 1 359 346 326 299 277 261 250 243
245 249 253 260 268 270 269 268 270 277 280 283 288 298 306 309 311 313 307 295 285 276 269 266 266 268 272 275 279 281 285 291 298 305 321 336 347 352 352 352 356 356 348 333 306 280 266 258 251
248 251 255 258 259 261 264 268 270 270 273 277 280 286 292 296 299 300 297 289 283 275 271 268 267 268 270 272 275 277 280 286 291 297 305 315 326 334 336 338 344 349 343 331 312 286 267 262 260
254 255 256 257 258 262 266 266 266 267 270 274 278 283 286 290 293 294 293 290 285 278 272 270 268 266 267 270 273 276 281 283 286 292 296 297 306 316 321 325 331 336 337 330 319 300 276 260 257
257 257 256 257 260 263 265 264 266 269 271 274 278 280 282 286 289 291 292 291 288 282 276 273 271 269 268 268 273 276 281 283 281 285 289 287 294 303 311 314 317 319 321 320 313 303 288 270 258
255 256 256 256 259 261 263 264 266 270 270 274 278 279 278 280 285 287 288 290 289 284 280 278 274 272 271 270 272 278 284 284 279 281 283 282 292 296 301 302 300 300 302 304 302 298 291 281 271
257 259 258 258 259 260 262 265 267 269 270 272 277 279 277 277 279 280 283 284 285 283 281 279 275 272 272 272 271 274 280 282 283 286 286 286 291 293 294 294 290 286 287 290 292 288 285 280 274
261 262 262 262 262 263 264 266 269 271 273 275 278 278 277 273 271 272 275 278 278 278 278 277 276 273 273 273 273 276 278 280 283 287 288 287 290 290 290 288 286 282 279 281 283 282 279 275 270
265 266 266 266 266 266 266 267 270 273 275 277 278 279 274 268 266 265 268 270 272 271 272 271 271 271 273 273 275 278 280 280 282 285 288 290 289 289 288 286 285 281 278 277 277 279 276 272 266
265 266 266 267 267 268 269 268 269 272 274 276 277 278 273 266 261 261 261 264 265 265 267 267 268 269 271 273 276 279 282 283 285 288 291 293 293 291 288 285 282 278 275 274 274 275 272 267 263
267 266 266 267 267 267 268 269 267 268 270 272 274 276 270 263 257 255 255 258 259 260 261 265 266 269 271 274 277 281 284 285 288 291 292 293 293 291 288 284 280 276 274 272 270 270 267 262 257
278 275 272 271 270 269 269 269 266 264 264 265 267 267 265 260 255 252 250 248 250 252 253 255 259 263 267 272 276 281 284 289 293 294 294 294 293 291 288 285 281 277 273 269 266 265 262 256 252
294 288 284 280 277 275 272 269 266 261 259 259 260 258 257 256 254 249 247 246 248 248 246 250 251 254 259 266 273 279 285 290 292 293 293 293 292 290 287 284 281 277 272 266 263 260 258 252 249
295 292 290 286 280 277 271 267 262 257 254 253 252 252 249 249 246 245 244 244 246 245 244 244 244 248 255 262 270 278 284 287 290 291 292 292 290 288 285 284 281 278 272 266 262 260 260 252 249
289 284 281 280 277 271 265 260 256 252 251 248 244 241 236 235 235 237 238 239 242 242 244 243 241 247 255 264 272 278 282 285 288 290 291 291 289 287 285 283 280 276 271 266 262 260 258 254 250
284 275 271 270 270 267 264 259 256 255 249 241 236 233 228 227 227 229 233 233 234 234 234 232 237 247 256 265 272 277 281 285 288 288 288 289 289 288 286 283 279 274 270 265 263 258 255 253 247
281 272 263 258 260 263 262 258 256 253 251 243 235 232 229 229 227 225 224 223 219 221 223 222 237 248 259 267 272 277 281 283 286 287 286 286 287 288 285 282 277 272 268 264 261 258 253 251 248
279 268 258 253 254 258 260 257 257 259 254 247 236 234 236 236 233 231 225 221 212 211 219 227 241 255 264 268 273 277 279 280 283 288 289 287 286 285 282 279 275 272 269 264 260 259 255 251 249
281 267 257 251 250 252 253 256 258 269 268 257 246 238 241 240 237 241 234 224 217 213 221 236 249 258 264 269 273 277 279 282 285 289 291 291 287 284 280 276 273 270 268 265 262 261 257 253 251
Height
5897 5897 5898 5900 5900 5900 5898 5898 5898 5898 5899 5899 5898 5897 5897 5897 5898 5899 5896 5896 5896 5896 5896 5896 5895 5894 5893 5892 5891 5890 5890 5889 5888 5886 5885 5883 5882 5881 5880 5879 5878 5878 5877 5877 5877 5876 5877 5878 5879
5897 5897 5899 5900 5899 5899 5899 5898 5898 5898 5899 5899 5898 5898 5896 5897 5896 5895 5894 5895 5895 5896 5896 5896 5896 5895 5894 5893 5892 5891 5890 5889 5888 5887 5885 5883 5882 5880 5879 5878 5878 5877 5876 5876 5875 5874 5874 5875 5877
5897 5897 5899 5899 5899 5899 5899 5898 5898 5899 5898 5898 5899 5898 5897 5896 5896 5894 5893 5894 5895 5895 5896 5896 5896 5895 5894 5893 5892 5892 5891 5890 5889 5887 5885 5883 5881 5879 5878 5877 5877 5876 5875 5874 5874 5873 5872 5872 5874
5897 5898 5899 5899 5898 5898 5898 5898 5898 5899 5899 5898 5898 5897 5896 5896 5895 5894 5892 5893 5894 5895 5896 5896 5896 5896 5895 5894 5893 5892 5891 5890 5889 5887 5885 5883 5880 5879 5877 5876 5876 5875 5874 5873 5873 5872 5871 5871 5873
5898 5898 5898 5898 5898 5898 5898 5898 5899 5899 5899 5898 5897 5896 5896 5895 5894 5893 5892 5892 5893 5894 5895 5896 5896 5896 5895 5894 5893 5892 5891 5890 5888 5887 5884 5882 5880 5878 5877 5876 5875 5874 5873 5873 5872 5872 5871 5871 5872
5898 5897 5898 5897 5898 5898 5898 5898 5898 5900 5899 5898 5897 5896 5895 5894 5893 5892 5891 5891 5892 5892 5894 5895 5895 5895 5895 5894 5893 5892 5890 5889 5888 5886 5884 5882 5880 5878 5876 5875 5873 5873 5873 5872 5872 5872 5872 5871 5871
5897 5896 5896 5897 5897 5897 5897 5897 5897 5898 5899 5897 5896 5896 5894 5893 5893 5891 5891 5891 5891 5892 5893 5894 5894 5895 5894 5894 5893 5891 5890 5889 5887 5885 5883 5881 5879 5878 5876 5874 5873 5872 5871 5871 5872 5872 5872 5872 5872
5895 5897 5896 5895 5896 5896 5897 5897 5897 5897 5897 5896 5895 5895 5894 5893 5892 5891 5890 5890 5891 5892 5892 5893 5893 5894 5894 5894 5893 5891 5890 5888 5886 5884 5882 5880 5878 5877 5875 5874 5872 5871 5870 5870 5871 5871 5872 5872 5873
5895 5897 5895 5895 5895 5895 5896 5896 5896 5896 5896 5895 5894 5894 5893 5893 5892 5891 5891 5890 5890 5891 5891 5891 5892 5892 5893 5893 5892 5891 5889 5887 5885 5883 5881 5879 5878 5876 5875 5873 5871 5870 5869 5869 5869 5870 5871 5872 5873
5894 5895 5895 5894 5894 5894 5895 5895 5895 5896 5896 5894 5894 5893 5893 5892 5892 5891 5890 5890 5890 5890 5890 5890 5890 5891 5891 5891 5891 5890 5888 5886 5884 5882 5880 5879 5877 5875 5874 5872 5871 5869 5867 5867 5868 5869 5870 5871 5872
5892 5893 5894 5893 5892 5892 5893 5893 5893 5893 5895 5895 5894 5893 5892 5891 5891 5890 5890 5889 5889 5889 5888 5889 5889 5889 5889 5889 5888 5888 5886 5885 5883 5881 5879 5877 5876 5874 5873 5871 5870 5868 5866 5866 5866 5867 5868 5868 5869
5891 5891 5892 5892 5891 5890 5890 5891 5891 5891 5891 5892 5892 5891 5891 5890 5890 5889 5889 5888 5888 5887 5887 5886 5886 5886 5886 5885 5885 5885 5884 5883 5881 5879 5878 5876 5875 5873 5871 5870 5869 5867 5866 5865 5865 5865 5865 5866 5867
5889 5889 5889 5890 5889 5888 5887 5888 5888 5888 5887 5888 5888 5889 5888 5888 5888 5888 5888 5887 5887 5886 5885 5884 5883 5883 5883 5882 5882 5881 5881 5880 5879 5877 5876 5874 5873 5872 5870 5869 5868 5866 5864 5864 5863 5864 5864 5864 5864
5884 5886 5886 5886 5885 5884 5884 5885 5885 5884 5883 5883 5883 5884 5885 5885 5885 5886 5886 5885 5884 5883 5882 5881 5880 5880 5879 5879 5878 5878 5877 5876 5876 5875 5874 5873 5871 5870 5869 5868 5866 5865 5863 5862 5861 5861 5862 5862 5862
5881 5883 5883 5881 5881 5881 5881 5883 5881 5880 5879 5878 5878 5879 5879 5880 5880 5881 5882 5882 5881 5880 5879 5878 5877 5876 5875 5875 5874 5874 5874 5873 5872 5871 5871 5870 5869 5868 5867 5865 5864 5862 5861 5860 5859 5859 5859 5859 5859
5876 5877 5878 5876 5876 5876 5878 5879 5877 5876 5876 5875 5874 5874 5874 5874 5874 5875 5876 5876 5876 5875 5875 5874 5873 5872 5872 5871 5871 5870 5870 5870 5869 5868 5867 5867 5866 5865 5864 5863 5861 5860 5858 5857 5856 5856 5855 5855 5855
5870 5871 5871 5871 5870 5870 5870 5872 5872 5871 5871 5870 5869 5868 5868 5868 5868 5868 5869 5870 5871 5870 5870 5869 5869 5869 5868 5868 5867 5866 5866 5865 5865 5864 5863 5863 5862 5862 5860 5859 5858 5857 5856 5854 5853 5852 5851 5850 5850
5864 5863 5863 5864 5863 5863 5863 5864 5865 5864 5864 5863 5863 5862 5861 5861 5862 5861 5862 5863 5865 5865 5865 5864 5864 5864 5864 5864 5863 5863 5862 5861 5861 5860 5859 5859 5858 5857 5856 5855 5854 5853 5851 5850 5849 5848 5847 5846 5846
5856 5855 5855 5856 5855 5855 5855 5856 5857 5856 5856 5856 5855 5855 5854 5854 5854 5855 5855 5857 5859 5859 5859 5859 5859 5859 5859 5859 5859 5859 5859 5858 5857 5856 5855 5854 5853 5852 5851 5850 5848 5847 5846 5845 5844 5843 5843 5842 5841
5848 5847 5846 5846 5845 5844 5845 5847 5849 5848 5847 5847 5847 5846 5846 5846 5847 5847 5849 5850 5852 5853 5854 5853 5853 5854 5854 5854 5854 5854 5854 5854 5853 5852 5851 5849 5848 5846 5845 5844 5842 5841 5840 5839 5839 5838 5837 5837 5837
5839 5837 5836 5835 5834 5833 5833 5837 5840 5838 5837 5837 5838 5838 5837 5838 5838 5840 5842 5843 5846 5847 5848 5848 5848 5848 5848 5848 5848 5848 5848 5848 5848 5847 5846 5844 5842 5841 5839 5838 5836 5835 5834 5833 5833 5832 5832 5832 5832
5829 5827 5825 5824 5823 5823 5823 5824 5830 5828 5827 5827 5827 5828 5829 5830 5831 5833 5834 5837 5839 5841 5841 5841 5841 5841 5842 5842 5842 5842 5842 5843 5842 5841 5840 5838 5836 5834 5833 5831 5830 5829 5828 5827 5826 5826 5826 5826 5826
5820 5818 5816 5814 5813 5813 5813 5812 5818 5817 5817 5817 5818 5819 5821 5823 5824 5825 5827 5830 5832 5833 5833 5834 5834 5835 5836 5836 5837 5837 5837 5837 5836 5834 5833 5831 5829 5828 5826 5825 5824 5822 5821 5820 5820 5819 5819 5820 5820
5812 5809 5807 5805 5804 5805 5805 5805 5807 5806 5806 5808 5809 5811 5813 5816 5817 5819 5820 5822 5824 5825 5826 5827 5828 5829 5830 5831 5832 5832 5832 5831 5830 5828 5827 5825 5823 5821 5820 5818 5817 5815 5814 5813 5812 5812 5812 5813 5814
5802 5800 5797 5796 5796 5797 5798 5797 5798 5797 5798 5800 5801 5803 5805 5808 5810 5811 5813 5814 5816 5818 5818 5819 5821 5823 5825 5827 5827 5827 5826 5826 5824 5823 5821 5819 5817 5815 5813 5812 5810 5808 5807 5806 5806 5806 5805 5805 5807
5792 5790 5789 5788 5788 5789 5791 5791 5791 5791 5792 5793 5795 5797 5798 5801 5803 5804 5805 5807 5808 5810 5812 5813 5816 5819 5821 5822 5822 5822 5821 5820 5818 5817 5815 5813 5811 5809 5807 5805 5803 5802 5801 5800 5800 5800 5799 5799 5801
5779 5779 5779 5779 5779 5781 5783 5784 5784 5785 5786 5787 5788 5790 5792 5794 5796 5798 5798 5799 5800 5803 5805 5809 5812 5815 5817 5817 5817 5816 5815 5814 5813 5811 5809 5808 5805 5803 5801 5799 5798 5796 5795 5795 5794 5794 5794 5795 5796
5766 5766 5768 5770 5771 5774 5776 5777 5778 5779 5780 5781 5782 5784 5786 5788 5789 5791 5792 5793 5794 5798 5801 5805 5809 5811 5811 5811 5810 5809 5808 5808 5807 5805 5803 5802 5799 5797 5795 5793 5792 5791 5790 5790 5789 5789 5789 5790 5792
5755 5755 5757 5760 5764 5767 5770 5773 5772 5774 5774 5775 5777 5779 5781 5783 5784 5785 5785 5787 5790 5796 5800 5802 5804 5805 5805 5805 5804 5803 5802 5801 5800 5799 5797 5795 5793 5791 5790 5788 5787 5786 5786 5785 5785 5785 5785 5786 5787
5747 5748 5750 5754 5758 5761 5765 5770 5768 5770 5771 5771 5772 5775 5777 5779 5781 5780 5782 5786 5790 5794 5797 5799 5799 5800 5799 5798 5797 5797 5796 5795 5793 5792 5790 5788 5787 5785 5784 5783 5782 5781 5781 5780 5780 5781 5781 5782 5782